Location: ???? ????
(41.4149°N, 22.8816°E)
Time: 14:47:01
(UTC+00:00)

NOSS 3-2 (A) - Pass Details

Date: 14 July 2020
Orbit: 798 x 1410 km, 63.4° (Epoch: 31 July)

Event Time Altitude Azimuth Distance (km) Brightness Sun altitude
Exits shadow 02:21:26 - 221° (SW) 2,513 5.0 -8.0°
Reaches altitude 10° 02:21:38 10° 221° (SW) 2,439 5.0 -7.9°
Maximum altitude 02:27:14 75° 307° (NW) 934 3.4 -7.1°
Drops below altitude 10° 02:33:38 10° 33° (NNE) 2,775 7.2 -6.1°
Sets 02:36:26 0° 35° (NE) 3,824 8.2 -5.7°
